Date String (YYYY-MM-DD hh:mm:ss) UTC,Instrument flags,Ambient pressure (hPa),Sample flow (lpm),Bypass flow (lpm),Sample temperature (°C),Ambient temperature (°C),ASC tube jacket temperature (°C),LED temperature (°C),Box temperature (°C),Sample RH (%),Span deviation,Mass concentration (μg/m³),Mass concentration (μg/m³),Mass concentration (μg/m³)
DateTimeUTC,F1_M11,P_M11,Q1_M11,Q2_M11,T1_M11,T2_M11,T3_M11,T4_M11,T5_M11,U1_M11,ZSPAN_M11,X0_M11,X2_M11,X1_M11
2022-09-11 02:00:00,,0835.0,5.01,0.00,27.8,26.1,00.0,36.5,29.6,28.7,0000.0,0003.30,0002.24,0001.86
2022-09-11 02:01:00,,0835.1,5.00,0.00,27.8,26.1,00.0,36.5,29.6,28.7,0000.0,0003.31,0002.22,0001.84
2022-09-11 02:02:00,,0835.1,5.00,0.00,27.8,26.1,00.0,36.5,29.6,28.7,0000.0,0003.25,0002.19,0001.83
2022-09-11 02:03:00,,0835.0,5.00,0.00,27.8,26.0,00.0,36.5,29.6,28.7,0000.0,0003.08,0002.17,0001.82
2022-09-11 02:04:00,,0835.1,5.00,0.00,27.8,26.0,00.0,36.5,29.6,28.7,0000.0,0002.91,0002.11,0001.82
2022-09-11 02:05:00,,0835.1,4.99,0.00,27.8,26.1,00.0,36.5,29.6,28.7,0000.0,0002.90,0002.11,0001.83
2022-09-11 02:06:00,,0835.1,4.99,0.00,27.8,26.1,00.0,36.5,29.6,28.7,0000.0,0002.88,0002.10,0001.84
2022-09-11 02:07:00,,0835.1,5.01,0.00,27.8,26.1,00.0,36.5,29.6,28.7,0000.0,0002.80,0002.06,0001.84
2022-09-11 02:08:00,,0835.1,5.00,0.00,27.8,26.1,00.0,36.5,29.6,28.7,0000.0,0002.77,0002.05,0001.83
2022-09-11 02:09:00,,0835.1,5.00,0.00,27.8,26.2,00.0,36.5,29.6,28.6,0000.0,0002.80,0002.08,0001.83
2022-09-11 02:10:00,,0835.2,5.00,0.00,27.8,26.1,00.0,36.5,29.6,28.5,0000.0,0002.70,0002.05,0001.82
2022-09-11 02:11:00,,0835.1,5.00,0.00,27.8,26.1,00.0,36.5,29.6,28.5,0000.0,0002.51,0001.97,0001.78
2022-09-11 02:12:00,,0835.2,5.00,0.00,27.8,26.1,00.0,36.5,29.6,28.5,0000.0,0002.54,0001.95,0001.75
2022-09-11 02:13:00,,0835.2,5.00,0.00,27.8,26.2,00.0,36.5,29.6,28.5,0000.0,0003.65,0001.96,0001.74
2022-09-11 02:14:00,,0835.2,4.99,0.00,27.8,26.2,00.0,36.5,29.6,28.5,0000.0,0003.71,0001.93,0001.72
2022-09-11 02:15:00,,0835.2,5.01,0.00,27.8,26.2,00.0,36.5,29.7,28.4,0000.0,0003.72,0001.93,0001.71
2022-09-11 02:16:00,,0835.2,5.01,0.00,27.8,26.2,00.0,36.5,29.7,28.4,0000.0,0003.70,0001.92,0001.69
2022-09-11 02:17:00,,0835.2,4.99,0.00,27.8,26.3,00.0,36.5,29.7,28.4,0000.0,0003.67,0001.90,0001.68
2022-09-11 02:18:00,,0835.2,5.00,0.00,27.8,26.3,00.0,36.5,29.7,28.3,0000.0,0003.71,0001.93,0001.71
2022-09-11 02:19:00,,0835.2,5.01,0.00,27.8,26.4,00.0,36.5,29.7,28.3,0000.0,0003.77,0001.98,0001.76
2022-09-11 02:20:00,,0835.2,5.01,0.00,27.8,26.4,00.0,36.5,29.7,28.2,0000.0,0003.72,0001.97,0001.79
2022-09-11 02:21:00,,0835.3,4.99,0.00,27.8,26.4,00.0,36.5,29.7,28.2,0000.0,0003.76,0002.00,0001.82
2022-09-11 02:22:00,,0835.3,5.00,0.00,27.8,26.4,00.0,36.5,29.7,28.2,0000.0,0003.82,0002.04,0001.85
2022-09-11 02:23:00,,0835.2,5.00,0.00,27.8,26.4,00.0,36.6,29.7,28.1,0000.0,0003.74,0002.05,0001.88
2022-09-11 02:24:00,,0835.3,4.99,0.00,27.9,26.4,00.0,36.6,29.7,28.2,0000.0,0002.92,0002.06,0001.90
2022-09-11 02:25:00,,0835.3,5.00,0.00,27.9,26.4,00.0,36.6,29.7,28.2,0000.0,0002.60,0002.09,0001.94
2022-09-11 02:26:00,,0835.3,5.01,0.00,27.9,26.5,00.0,36.6,29.8,28.2,0000.0,0002.70,0002.16,0002.00
2022-09-11 02:27:00,,0835.4,5.01,0.00,27.9,26.5,00.0,36.6,29.8,28.3,0000.0,0002.82,0002.24,0002.06
2022-09-11 02:28:00,,0835.3,4.99,0.00,27.9,26.5,00.0,36.6,29.8,29.2,0000.0,0002.98,0002.34,0002.14
2022-09-11 02:29:00,,0835.4,5.00,0.00,27.9,26.5,00.0,36.6,29.8,28.8,0000.0,0003.03,0002.37,0002.16
2022-09-11 02:30:00,,0835.4,5.00,0.00,27.9,26.5,00.0,36.6,29.8,28.5,0000.0,0003.12,0002.41,0002.18
2022-09-11 02:31:00,,0835.3,5.00,0.00,27.9,26.5,00.0,36.6,29.8,28.4,0000.0,0003.44,0002.63,0002.36
2022-09-11 02:32:00,,0835.4,5.01,0.00,27.9,26.5,00.0,36.6,29.8,28.4,0000.0,0003.94,0002.97,0002.64
2022-09-11 02:33:00,,0835.3,4.99,0.00,28.0,26.6,00.0,36.6,29.8,28.5,0000.0,0004.43,0003.24,0002.97
2022-09-11 02:34:00,,0835.4,4.99,0.00,28.0,26.6,00.0,36.7,29.9,28.5,0000.0,0004.79,0003.39,0003.18
2022-09-11 02:35:00,,0835.4,5.01,0.00,28.0,26.6,00.0,36.7,29.9,28.5,0000.0,0005.02,0003.50,0003.29
2022-09-11 02:36:00,,0835.4,5.00,0.00,28.0,26.6,00.0,36.7,29.9,28.6,0000.0,0005.29,0003.61,0003.39
2022-09-11 02:37:00,,0835.4,4.99,0.00,28.0,26.6,00.0,36.7,29.9,28.6,0000.0,0005.41,0003.67,0003.44
2022-09-11 02:38:00,,0835.4,5.00,0.00,28.0,26.6,00.0,36.7,29.9,28.7,0000.0,0005.51,0003.71,0003.49
2022-09-11 02:39:00,,0835.4,5.00,0.00,28.0,26.5,00.0,36.7,29.9,28.7,0000.0,0005.58,0003.75,0003.52
2022-09-11 02:40:00,,0835.4,5.00,0.00,28.0,26.5,00.0,36.7,29.9,28.8,0000.0,0005.76,0003.82,0003.58
2022-09-11 02:41:00,,0835.4,5.01,0.00,28.0,26.6,00.0,36.7,29.9,28.7,0000.0,0005.86,0003.86,0003.60
2022-09-11 02:42:00,,0835.5,4.99,0.00,28.0,26.5,00.0,36.7,29.9,28.7,0000.0,0005.72,0003.80,0003.55
2022-09-11 02:43:00,,0835.5,5.01,0.00,28.0,26.5,00.0,36.7,29.9,28.7,0000.0,0005.29,0003.67,0003.45
2022-09-11 02:44:00,,0835.4,5.00,0.00,28.0,26.6,00.0,36.7,29.9,28.7,0000.0,0004.88,0003.53,0003.35
2022-09-11 02:45:00,,0835.5,5.00,0.00,28.0,26.6,00.0,36.7,29.9,28.7,0000.0,0004.72,0003.48,0003.29
2022-09-11 02:46:00,,0835.5,5.01,0.00,28.0,26.5,00.0,36.7,29.9,28.7,0000.0,0004.63,0003.46,0003.28
2022-09-11 02:47:00,,0835.5,5.01,0.00,28.0,26.6,00.0,36.7,29.9,28.7,0000.0,0004.52,0003.44,0003.28
2022-09-11 02:48:00,,0835.5,5.00,0.00,28.0,26.6,00.0,36.7,29.9,28.6,0000.0,0004.49,0003.46,0003.30
2022-09-11 02:49:00,,0835.5,4.98,0.00,28.0,26.6,00.0,36.7,29.9,28.5,0000.0,0004.54,0003.50,0003.35
2022-09-11 02:50:00,,0835.5,5.01,0.00,28.1,26.6,00.0,36.8,29.9,28.5,0000.0,0004.60,0003.56,0003.41
2022-09-11 02:51:00,,0835.5,5.00,0.00,28.1,26.6,00.0,36.8,29.9,28.4,0000.0,0004.62,0003.57,0003.44
2022-09-11 02:52:00,,0835.5,5.00,0.00,28.1,26.6,00.0,36.8,29.9,28.4,0000.0,0004.57,0003.59,0003.46
2022-09-11 02:53:00,,0835.5,5.00,0.00,28.1,26.6,00.0,36.8,30.0,28.4,0000.0,0004.52,0003.60,0003.49
2022-09-11 02:54:00,,0835.5,5.00,0.00,28.1,26.6,00.0,36.8,29.9,28.4,0000.0,0004.62,0003.62,0003.50
2022-09-11 02:55:00,,0835.5,5.00,0.00,28.1,26.6,00.0,36.8,29.9,28.3,0000.0,0004.75,0003.65,0003.52
2022-09-11 02:56:00,,0835.5,4.99,0.00,28.1,26.6,00.0,36.8,30.0,28.5,0000.0,0004.90,0003.68,0003.54
2022-09-11 02:57:00,,0835.5,5.00,0.00,28.1,26.6,00.0,36.8,30.0,29.3,0000.0,0004.99,0003.71,0003.55
2022-09-11 02:58:00,,0835.5,5.00,0.00,28.1,26.6,00.0,36.8,29.9,28.9,0000.0,0005.03,0003.72,0003.56
2022-09-11 02:59:00,,0835.6,5.01,0.00,28.1,26.6,00.0,36.8,30.0,28.7,0000.0,0005.07,0003.74,0003.57
